Weather History for West Yellowstone, MT

Change the Weather History Date:

Thursday, November 29, 2012

  Actual Average Record
Temperature  
Mean Temperature 32 °F -  
Max Temperature 35 °F 26 °F 35 °F (2012)
Min Temperature 28 °F 6 °F 6 °F (2010)
Degree Days  
Heating Degree Days 34    
Moisture  
Dew Point -    
Average Humidity    
Maximum Humidity    
Minimum Humidity    
Precipitation  
Precipitation 0.00 in - - ()
Sea Level Pressure  
Sea Level Pressure 30.03 in    
Wind  
Wind Speed 7 mph (SSW)    
Max Wind Speed 20 mph    
Max Gust Speed 31 mph    
Visibility 7 miles    
Events Rain , Snow    
Averages and records for this station are not official NWS values.
T = Trace of Precipitation, MM = Missing Value Source: NWS Daily Summary

Daily Weather History Graph

Daily Weather History Graph

Search for Another Location

Airport:

Trip Planner

Search our weather history database for the weather conditions in past years. The results will help you decide how hot, cold, wet, or windy it might be!

Date:

Astronomy

Nov. 29, 2012 Rise Set
Actual Time 7:39 AM MST 4:46 PM MST
Civil Twilight 7:06 AM MST 5:18 PM MST
Nautical Twilight 6:30 AM MST 5:55 PM MST
Astronomical Twilight 5:55 AM MST 6:30 PM MST
Moon 5:51 PM MST (11/29) 8:29 AM MST (11/29)
Length of Visible Light 10h 11m
Length of Day
9h 06m
Full, 99% of the Moon is Illuminated
Nov 29
Full
Dec 6
Last Quarter
Dec 13
New
Dec 19
First Quarter
Dec 28
Full

Hourly Weather History & Observations

Time (MST) Temp. Windchill Dew Point Humidity Pressure Visibility Wind Dir Wind Speed Gust Speed Precip Events Conditions
12:10 AM 28.4 °F 24.6 °F - N/A% 29.99 in 10.0 mi SSW 3.5 mph - N/A   Overcast
12:30 AM 35.6 °F 26.6 °F - N/A% 29.99 in 9.0 mi SSW 13.8 mph 17.3 mph N/A   Mostly Cloudy
12:50 AM 32.0 °F 25.6 °F - N/A% 30.00 in 1.2 mi SSW 6.9 mph - N/A Snow Light Snow
1:10 AM 32.0 °F 24.2 °F - N/A% 29.98 in 2.0 mi South 9.2 mph - N/A   Overcast
1:30 AM 32.0 °F 25.6 °F - N/A% 29.99 in 2.5 mi South 6.9 mph - N/A Snow Light Snow
1:50 AM 32.0 °F 24.2 °F - N/A% 29.98 in 2.5 mi South 9.2 mph - N/A Snow Light Snow
2:10 AM 32.0 °F 28.7 °F - N/A% 29.98 in 3.0 mi South 3.5 mph - N/A   Mostly Cloudy
2:30 AM 32.0 °F 28.7 °F - N/A% 29.98 in 4.0 mi SSW 3.5 mph - N/A   Overcast
2:50 AM 32.0 °F - - N/A% 29.99 in 3.0 mi Calm Calm - N/A Snow Light Snow
3:10 AM 32.0 °F 27.5 °F - N/A% 29.98 in 4.0 mi South 4.6 mph - N/A Snow Light Snow
3:30 AM 32.0 °F - - N/A% 29.98 in 5.0 mi Calm Calm - N/A Rain Light Rain
3:50 AM 32.0 °F 26.4 °F - N/A% 29.98 in 8.0 mi SSW 5.8 mph - N/A Rain Light Rain
4:10 AM 32.0 °F 27.5 °F - N/A% 29.98 in 4.0 mi South 4.6 mph - N/A Rain Light Rain
4:30 AM 32.0 °F 28.7 °F - N/A% 29.98 in 3.0 mi South 3.5 mph - N/A Rain Light Rain
4:50 AM 32.0 °F 27.5 °F - N/A% 29.98 in 3.0 mi SE 4.6 mph - N/A Snow Light Snow
5:10 AM 32.0 °F - - N/A% 29.99 in 5.0 mi Calm Calm - N/A Snow Light Snow
5:30 AM 32.0 °F - - N/A% 30.00 in 5.0 mi Calm Calm - N/A Rain Light Rain
5:50 AM 32.0 °F 27.5 °F - N/A% 30.01 in 2.0 mi SW 4.6 mph - N/A Snow Light Snow
6:10 AM 32.0 °F 26.4 °F - N/A% 30.02 in 4.0 mi SW 5.8 mph - N/A Snow Light Snow
6:30 AM 32.0 °F 23.6 °F - N/A% 30.02 in 1.8 mi SW 10.4 mph 17.3 mph N/A Snow Light Snow
6:50 AM 32.0 °F 21.6 °F - N/A% 30.02 in 4.0 mi SW 15.0 mph - N/A Snow Light Snow
7:10 AM 32.0 °F 22.1 °F - N/A% 30.02 in 4.0 mi SW 13.8 mph 18.4 mph N/A Snow Light Snow
7:30 AM 32.0 °F 22.1 °F - N/A% 30.03 in 3.0 mi SW 13.8 mph 18.4 mph N/A Snow Light Snow
7:50 AM 32.0 °F 22.5 °F - N/A% 30.04 in 3.0 mi SW 12.7 mph 20.7 mph N/A Snow Light Snow
8:10 AM 32.0 °F 23.0 °F - N/A% 30.05 in 8.0 mi SW 11.5 mph 19.6 mph N/A   Overcast
8:30 AM 32.0 °F 24.2 °F - N/A% 30.06 in 3.0 mi WSW 9.2 mph 18.4 mph N/A Snow Light Snow
9:10 AM 32.0 °F 25.6 °F - N/A% 30.06 in 5.0 mi SW 6.9 mph - N/A   Haze
9:30 AM 32.0 °F 24.2 °F - N/A% 30.06 in 7.0 mi SW 9.2 mph 18.4 mph N/A   Overcast
9:50 AM 32.0 °F 24.8 °F - N/A% 30.07 in 2.0 mi SW 8.1 mph 17.3 mph N/A Snow Light Snow
10:10 AM 32.0 °F 23.0 °F - N/A% 30.08 in 4.0 mi SW 11.5 mph 19.6 mph N/A Rain Light Rain
10:30 AM 32.0 °F 23.0 °F - N/A% 30.08 in 5.0 mi SW 11.5 mph 19.6 mph N/A Rain Light Rain
10:50 AM 32.0 °F 21.6 °F - N/A% 30.08 in 6.0 mi SW 15.0 mph 18.4 mph N/A Rain Light Rain
11:10 AM 32.0 °F 24.2 °F - N/A% 30.08 in 10.0 mi SW 9.2 mph 17.3 mph N/A   Overcast
11:30 AM 32.0 °F 21.2 °F - N/A% 30.08 in 10.0 mi SSW 16.1 mph 20.7 mph N/A   Overcast
11:50 AM 32.0 °F 23.0 °F - N/A% 30.08 in 10.0 mi SW 11.5 mph 16.1 mph N/A   Overcast
12:10 PM 32.0 °F 23.6 °F - N/A% 30.07 in 10.0 mi SW 10.4 mph 17.3 mph N/A   Overcast
12:30 PM 32.0 °F 23.6 °F - N/A% 30.07 in 10.0 mi SW 10.4 mph - N/A   Overcast
12:50 PM 33.8 °F 23.5 °F - N/A% 30.06 in 10.0 mi SW 16.1 mph 26.5 mph N/A   Overcast
1:10 PM 33.8 °F 22.8 °F - N/A% 30.05 in 10.0 mi SW 18.4 mph 26.5 mph N/A   Overcast
1:30 PM 33.8 °F 22.5 °F - N/A% 30.05 in 10.0 mi SW 19.6 mph 31.1 mph N/A   Scattered Clouds
1:50 PM 33.8 °F 24.3 °F - N/A% 30.04 in 10.0 mi SW 13.8 mph 23.0 mph N/A   Partly Cloudy
2:10 PM 33.8 °F 23.9 °F - N/A% 30.04 in 10.0 mi SW 15.0 mph 23.0 mph N/A   Clear
2:30 PM 33.8 °F 25.8 °F - N/A% 30.05 in 10.0 mi SW 10.4 mph 18.4 mph N/A   Clear
2:50 PM 33.8 °F 25.3 °F - N/A% 30.05 in 10.0 mi SSW 11.5 mph - N/A   Mostly Cloudy
3:10 PM 33.8 °F 28.6 °F - N/A% 30.05 in 10.0 mi SW 5.8 mph - N/A   Overcast
3:30 PM 33.8 °F 25.8 °F - N/A% 30.04 in 10.0 mi SW 10.4 mph - N/A   Mostly Cloudy
3:50 PM 33.8 °F 27.7 °F - N/A% 30.04 in 10.0 mi SW 6.9 mph - N/A   Mostly Cloudy
4:10 PM 33.8 °F 27.0 °F - N/A% 30.04 in 10.0 mi SSW 8.1 mph - N/A   Scattered Clouds
4:30 PM 33.8 °F 27.7 °F - N/A% 30.04 in 10.0 mi SW 6.9 mph - N/A   Scattered Clouds
4:50 PM 32.0 °F - - N/A% 30.04 in 10.0 mi Calm Calm - N/A   Overcast
5:10 PM 32.0 °F 26.4 °F - N/A% 30.03 in 7.0 mi SSE 5.8 mph - N/A   Overcast
5:30 PM 32.0 °F 24.8 °F - N/A% 30.04 in 9.0 mi SSW 8.1 mph - N/A   Overcast
5:50 PM 32.0 °F 24.2 °F - N/A% 30.04 in 10.0 mi SSW 9.2 mph - N/A   Overcast
6:10 PM 32.0 °F 24.2 °F - N/A% 30.03 in 6.0 mi SSW 9.2 mph - N/A   Haze
6:30 PM 32.0 °F 25.6 °F - N/A% 30.02 in 6.0 mi South 6.9 mph - N/A   Haze
6:50 PM 32.0 °F 27.5 °F - N/A% 30.03 in 5.0 mi SSW 4.6 mph - N/A   Haze
7:10 PM 32.0 °F 28.7 °F - N/A% 30.03 in 10.0 mi SSW 3.5 mph - N/A   Overcast
7:30 PM 35.6 °F 31.7 °F - N/A% 30.03 in 10.0 mi South 4.6 mph - N/A   Overcast
7:50 PM 32.0 °F 28.7 °F - N/A% 30.04 in 7.0 mi SSE 3.5 mph - N/A   Overcast
8:10 PM 32.0 °F - - N/A% 30.04 in 10.0 mi Calm Calm - N/A   Overcast
8:30 PM 32.0 °F - - N/A% 30.03 in 10.0 mi Calm Calm - N/A   Overcast
8:50 PM 32.0 °F - - N/A% 30.02 in 10.0 mi Calm Calm - N/A   Overcast
9:10 PM 32.0 °F - - N/A% 30.01 in 10.0 mi Calm Calm - N/A   Overcast
9:30 PM 30.2 °F - - N/A% 30.01 in 10.0 mi Calm Calm - N/A   Mostly Cloudy
9:50 PM 30.2 °F 25.4 °F - N/A% 30.01 in 10.0 mi SW 4.6 mph - N/A   Scattered Clouds
10:10 PM 32.0 °F 26.4 °F - N/A% 30.00 in 10.0 mi SW 5.8 mph - N/A   Scattered Clouds
10:30 PM 30.2 °F 24.3 °F - N/A% 30.00 in 10.0 mi NNE 5.8 mph - N/A   Scattered Clouds
10:50 PM 30.2 °F - - N/A% 30.00 in 10.0 mi Calm Calm - N/A   Mostly Cloudy
11:10 PM 30.2 °F 25.4 °F - N/A% 30.01 in 9.0 mi South 4.6 mph - N/A   Overcast
11:30 PM 35.6 °F 27.1 °F - N/A% 30.00 in 10.0 mi SW 12.7 mph 18.4 mph N/A   Overcast
11:50 PM 35.6 °F 28.0 °F - N/A% 30.00 in 10.0 mi SSW 10.4 mph - N/A   Mostly Cloudy